Effective Sunday, March 17, 2024, the National Weather Service National Data Buoy Center will discontinue its Dial-A-Buoy Interactive Voice Response system. For more information, see Service Change Notice 24-06 (PDF).

Station QPTR1 - 8454049 - Quonset Point, RI Image indicating link to RSS feed of recent meteorological observations for station QPTR1


Conditions at QPTR1 as of
(8:30 am EST)
1330 GMT on 02/26/2024:
     

Click on the graph icon in the table below to see a time series plot of the last five days of that observation.

5-day plot - Wind Direction Wind Direction (WDIR): SW ( 230 deg true )
5-day plot - Wind Speed Wind Speed (WSPD): 11.1 kts
5-day plot - Wind Gust Wind Gust (GST): 15.9 kts
5-day plot - Atmospheric Pressure Atmospheric Pressure (PRES):30.05 in
5-day plot - Air Temperature Air Temperature (ATMP): 41.2 °F
5-day plot - Wind Chill Wind Chill (CHILL): 34.0 °F
5-day plot - Wind Speed at 10 Meters Wind Speed at 10 meters (WSPD10M): 11.7 kts
5-day plot - Wind Speed at 20 Meters Wind Speed at 20 meters (WSPD20M): 13.6 kts
5-day plot -  Wind Speed, Wind Gust and Atmospheric Pressure Combined plot of Wind Speed, Gust, and Air Pressure
NOS Water Level Observation Network Water Level
Previous observations
TIME
(EST)
5-day plot - Wind Direction
WDIR
 
5-day plot - Wind Speed
WSPD
kts
5-day plot - Wind Gust
GST
kts
5-day plot - Wave Height
WVHT
ft
5-day plot - Dominant Wave Period
DPD
sec
5-day plot - Average Wave Period
APD
sec
5-day plot - Mean Wave Direction
MWD
 
5-day plot - Atmospheric Pressure
PRES
in
5-day plot - Pressure Tendency
PTDY
in
5-day plot - Air Temperature
ATMP
°F
5-day plot - Water Temperature
WTMP
°F
5-day plot - Dew Point
DEWP
°F
5-day plot - Salinity
SAL
psu
5-day plot - Visibility
VIS
nmi
5-day plot - Tide (above MLLW)
TIDE
ft
2024-02-26 08:24 amWSW 11.1 13.0----30.05- 40.8-----
2024-02-26 08:18 am SW 11.1 13.0----30.05- 40.6-----
2024-02-26 08:12 am SW 11.1 13.0----30.05- 40.5-----
2024-02-26 08:06 am SW 11.1 13.0----30.05- 40.3-----
2024-02-26 08:00 am SW 11.1 15.0----30.05+0.00 39.9-----
2024-02-26 07:54 am SW 11.1 14.0----30.04- 39.6-----
2024-02-26 07:48 am SW 9.9 13.0----30.05- 39.2-----
2024-02-26 07:42 am SW 9.9 12.0----30.05- 39.0-----
2024-02-26 07:36 am SW 9.9 12.0----30.05- 38.7-----
2024-02-26 07:30 am SW 9.9 11.1----30.04- 38.5-----
2024-02-26 07:24 am SW 9.9 9.9----30.04- 38.7-----
2024-02-26 07:18 am SW 8.9 9.9----30.04- 38.3-----
2024-02-26 07:12 am SW 8.9 9.9----30.05- 38.1-----
2024-02-26 07:06 am SW 8.9 9.9----30.04- 38.1-----
2024-02-26 07:00 am SW 8.9 9.9----30.04-0.03 38.1-----
2024-02-26 06:54 amSSW 8.9 11.1----30.04- 37.9-----
2024-02-26 06:48 am SW 8.9 11.1----30.04- 37.9-----
2024-02-26 06:42 am SW 9.9 11.1----30.04- 37.9-----
2024-02-26 06:36 am SW 9.9 11.1----30.04- 38.1-----
2024-02-26 06:30 am SW 9.9 12.0----30.04- 38.1-----
2024-02-26 06:24 am SW 8.9 11.1----30.04- 37.9-----
2024-02-26 06:18 am SW 8.9 12.0----30.04- 37.9-----
2024-02-26 06:12 am SW 9.9 11.1----30.04- 37.9-----
2024-02-26 06:06 am SW 8.0 12.0----30.04- 37.8-----
2024-02-26 06:00 am SW 8.9 12.0----30.04-0.04 37.8-----
2024-02-26 05:54 am SW 11.1 13.0----30.04- 37.9-----
2024-02-26 05:48 am SW 11.1 14.0----30.04- 37.9-----
2024-02-26 05:42 am SW 12.0 14.0----30.03- 37.8-----
2024-02-26 05:36 am SW 12.0 14.0----30.03- 37.8-----
2024-02-26 05:30 am SW 12.0 14.0----30.04- 37.8-----
2024-02-26 05:24 am SW 11.1 14.0----30.04- 37.6-----
2024-02-26 05:18 am SW 12.0 14.0----30.04- 37.6-----
2024-02-26 05:12 am SW 9.9 12.0----30.04- 37.4-----
2024-02-26 05:06 am SW 9.9 13.0----30.05- 37.6-----
2024-02-26 05:00 amSSW 11.1 14.0----30.05-0.04 37.8-----
2024-02-26 04:54 amSSW 12.0 14.0----30.04- 37.6-----
2024-02-26 04:48 amSSW 11.1 13.0----30.04- 37.4-----
2024-02-26 04:42 amSSW 12.0 13.0----30.05- 37.4-----
2024-02-26 04:36 am SW 11.1 13.0----30.05- 37.4-----
2024-02-26 04:30 am SW 9.9 12.0----30.06- 37.2-----
2024-02-26 04:24 amSSW 9.9 13.0----30.06- 37.0-----
2024-02-26 04:18 am SW 9.9 12.0----30.06- 36.9-----
2024-02-26 04:12 am SW 9.9 12.0----30.06- 36.9-----
2024-02-26 04:06 amSSW 11.1 13.0----30.06- 36.9-----
2024-02-26 04:00 am SW 9.9 12.0----30.07-0.02 36.7-----
2024-02-26 03:54 amSSW 8.9 11.1----30.07- 36.9-----
2024-02-26 03:48 amSSW 9.9 12.0----30.07- 36.7-----
2024-02-26 03:42 amSSW 11.1 12.0----30.07- 36.7-----
2024-02-26 03:36 amSSW 11.1 13.0----30.07- 36.5-----
2024-02-26 03:30 amSSW 9.9 11.1----30.07- 36.1-----
2024-02-26 03:24 amSSW 9.9 12.0----30.07- 36.0-----
2024-02-26 03:18 amSSW 8.9 9.9----30.07- 35.6-----
2024-02-26 03:12 amSSW 7.0 8.9----30.08- 35.1-----
2024-02-26 03:06 amSSW 7.0 8.0----30.09- 34.9-----
2024-02-26 03:00 amSSW 7.0 8.0----30.09-0.02 35.1-----
2024-02-26 02:54 am SW 7.0 8.0----30.09- 34.9-----
2024-02-26 02:48 am SW 7.0 8.0----30.09- 34.7-----
2024-02-26 02:42 amSSW 7.0 8.0----30.08- 34.5-----
2024-02-26 02:36 am SW 6.0 7.0----30.08- 34.2-----
2024-02-26 02:30 am SW 6.0 7.0----30.08- 34.2-----
2024-02-26 02:24 am SW 5.1 7.0----30.09- 33.8-----
2024-02-26 02:18 am SW 5.1 7.0----30.09- 33.6-----
2024-02-26 02:12 am SW 6.0 7.0----30.09- 33.4-----
2024-02-26 02:06 am SW 6.0 7.0----30.09- 33.4-----
2024-02-26 02:00 am SW 6.0 8.0----30.08-0.03 33.3-----
2024-02-26 01:54 am SW 6.0 8.0----30.08- 33.3-----
2024-02-26 01:48 am SW 7.0 8.0----30.09- 33.6-----
2024-02-26 01:42 am SW 8.0 8.9----30.09- 33.6-----
2024-02-26 01:36 am SW 8.0 8.9----30.09- 33.4-----
2024-02-26 01:30 am SW 8.9 8.9----30.09- 33.3-----
2024-02-26 01:24 am SW 7.0 8.0----30.08- 32.7-----
2024-02-26 01:18 am SW 8.0 8.9----30.08- 32.5-----
2024-02-26 01:12 am SW 7.0 8.9----30.08- 32.2-----
2024-02-26 01:06 am SW 8.0 8.9----30.09- 32.2-----
2024-02-26 01:00 am SW 8.0 8.9----30.09-0.02 32.2-----
2024-02-26 12:54 am SW 8.0 8.9----30.09- 32.4-----
2024-02-26 12:48 am SW 8.0 9.9----30.09- 32.5-----
2024-02-26 12:42 amSSW 8.0 9.9----30.09- 32.5-----
2024-02-26 12:36 amSSW 8.9 9.9----30.09- 32.4-----
2024-02-26 12:30 amSSW 7.0 8.0----30.09- 32.4-----
2024-02-26 12:24 amSSW 6.0 8.0----30.09- 32.2-----
2024-02-26 12:18 amSSW 7.0 8.0----30.10- 32.0-----
2024-02-26 12:12 am SW 7.0 8.0----30.10- 32.2-----
2024-02-26 12:06 am SW 6.0 8.0----30.10- 32.4-----
2024-02-26 12:00 amSSW 7.0 8.9----30.10-0.02 32.4-----
2024-02-25 11:54 pmSSW 8.0 8.9----30.11- 32.5-----
2024-02-25 11:48 pmSSW 8.9 9.9----30.11- 32.5-----
2024-02-25 11:42 pmSSW 8.9 9.9----30.10- 32.5-----
2024-02-25 11:36 pmSSW 8.0 9.9----30.10- 32.4-----
2024-02-25 11:30 pmSSW 7.0 8.9----30.11- 32.4-----
2024-02-25 11:24 pmSSW 7.0 8.9----30.11- 32.0-----
2024-02-25 11:18 pmSSW 8.0 8.9----30.11- 31.8-----
2024-02-25 11:12 pmSSW 7.0 8.0----30.11- 31.8-----
2024-02-25 11:06 pm SW 8.0 8.9----30.11- 31.8-----
2024-02-25 11:00 pm SW 7.0 8.9----30.11+0.00 31.6-----
2024-02-25 10:54 pm SW 7.0 9.9----30.11- 32.0-----
2024-02-25 10:48 pm SW 8.0 9.9----30.11- 31.8-----
2024-02-25 10:42 pm SW 8.9 9.9----30.11- 31.8-----
2024-02-25 10:36 pm SW 8.9 8.9----30.11- 31.5-----
2024-02-25 10:30 pmSSW 8.0 9.9----30.11- 31.5-----
2024-02-25 10:24 pm SW 8.0 9.9----30.10- 31.5-----
2024-02-25 10:18 pm SW 8.9 11.1----30.11- 31.6-----
2024-02-25 10:12 pmSSW 8.9 12.0----30.11- 31.8-----
2024-02-25 10:06 pmSSW 9.9 13.0----30.11- 32.0-----
2024-02-25 10:00 pm SW 9.9 13.0----30.11- 31.8-----
2024-02-25 09:54 pmSSW 9.9 12.0----30.11- 32.0-----
2024-02-25 09:48 pmSSW 9.9 11.1----30.11- 32.0-----
2024-02-25 09:42 pmSSW 9.9 12.0----30.11- 31.8-----
2024-02-25 09:36 pmSSW 8.9 11.1----30.11- 31.6-----
2024-02-25 09:30 pmSSW 8.9 11.1----30.11- 31.5-----
2024-02-25 09:24 pm SW 8.0 11.1----30.12- 31.6-----
2024-02-25 09:18 pm SW 8.9 12.0----30.12- 31.5-----
2024-02-25 09:12 pm SW 8.0 9.9----30.12- 31.6-----
2024-02-25 09:06 pmSSW 8.9 11.1----30.12- 31.5-----
2024-02-25 09:00 pm SW 9.9 12.0----30.12+0.01 31.6-----
2024-02-25 08:54 pm SW 9.9 12.0----30.12- 31.8-----
2024-02-25 08:48 pm SW 9.9 11.1----30.12- 31.8-----
2024-02-25 08:42 pmSSW 9.9 12.0----30.11- 31.6-----
2024-02-25 08:36 pmSSW 11.1 12.0----30.11- 31.5-----
2024-02-25 08:30 pmSSW 8.9 12.0----30.11- 31.5-----
2024-02-25 08:24 pmSSW 8.9 11.1----30.11- 31.6-----
2024-02-25 08:18 pmSSW 9.9 12.0----30.11- 31.6-----
2024-02-25 08:12 pmSSW 11.1 12.0----30.11- 31.6-----
2024-02-25 08:06 pmSSW 11.1 12.0----30.11- 31.6-----
2024-02-25 08:00 pmSSW 9.9 13.0----30.11+0.01------
2024-02-25 07:54 pmSSW 9.9 13.0----30.11-------
2024-02-25 07:48 pmSSW 12.0 13.0----30.11- 31.3-----
2024-02-25 07:42 pmSSW 11.1 12.0----30.11- 31.1-----
2024-02-25 07:36 pmSSW 9.9 12.0----30.11- 31.1-----
2024-02-25 07:30 pmSSW 9.9 11.1----30.11- 30.9-----
2024-02-25 07:24 pmSSW 9.9 11.1----30.11- 30.7-----
2024-02-25 07:18 pmSSW 9.9 11.1----30.12-------
2024-02-25 07:12 pmSSW 9.9 12.0----30.12-------
2024-02-25 07:06 pm SW 9.9 12.0----30.12-------
2024-02-25 07:00 pm SW 9.9 12.0------------
2024-02-25 06:54 pmSSW 8.9 12.0------------
2024-02-25 06:48 pm SW 9.9 13.0----30.12- 31.1-----
2024-02-25 06:42 pm SW 9.9 12.0----30.12- 30.9-----
2024-02-25 06:36 pm SW 9.9 12.0----30.12- 30.9-----
2024-02-25 06:30 pm SW 8.9 13.0----30.12- 30.9-----
2024-02-25 06:24 pm SW 12.0 14.0----30.12- 30.7-----
2024-02-25 06:00 pm SW 14.0 17.1----30.11- 31.3-----
2024-02-25 05:54 pm SW 13.0 15.0----30.10- 31.6-----
2024-02-25 05:48 pm SW 14.0 17.1----30.10- 31.5-----
2024-02-25 05:42 pmSSW 13.0 15.0----30.10- 31.8-----
2024-02-25 05:36 pmSSW 13.0 15.0----30.10- 31.8-----
2024-02-25 05:30 pmSSW 14.0 15.9----30.09- 32.0-----
2024-02-25 05:24 pmSSW 13.0 15.0----30.10- 32.5-----
2024-02-25 05:18 pmSSW 12.0 14.0----30.10- 32.7-----
2024-02-25 05:12 pmSSW 13.0 15.0----30.10- 32.7-----
2024-02-25 05:06 pmSSW 12.0 14.0----30.09- 33.1-----
2024-02-25 05:00 pm SW 11.1 13.0----30.09-0.02 33.3-----
2024-02-25 04:54 pmSSW 12.0 13.0----30.10- 33.3-----
2024-02-25 04:48 pmSSW 11.1 12.0----30.09-------
2024-02-25 04:42 pmSSW 12.0 13.0----30.09-------
2024-02-25 04:36 pm S 11.1 13.0----30.09-------
2024-02-25 04:30 pm-------30.09-------
2024-02-25 04:24 pm-------30.09-------
2024-02-25 04:18 pmSSW 12.0 14.0----30.10- 33.3-----
2024-02-25 04:12 pm S 12.0 14.0----30.10- 32.9-----
2024-02-25 04:06 pmSSW 12.0 15.0----30.10- 32.9-----
2024-02-25 04:00 pm S 13.0 15.0----30.10-0.03------
2024-02-25 03:54 pm S 14.0 15.9----30.10-------
2024-02-25 03:48 pm S 14.0 18.1----30.10- 32.2-----
2024-02-25 03:42 pm S 15.9 19.0----30.09- 31.8-----
2024-02-25 03:36 pm S 17.1 19.0----30.09- 31.6-----
2024-02-25 03:30 pm S 17.1 19.0----30.09- 31.5-----
2024-02-25 03:24 pm S 15.9 19.0----30.09- 31.8-----
2024-02-25 03:18 pm S 17.1 20.0----30.10-------
2024-02-25 03:12 pm S 17.1 19.0----30.10-------
2024-02-25 03:06 pm S 18.1 19.0----30.10-------
2024-02-25 03:00 pm S 17.1 19.0------------
2024-02-25 02:54 pm S 17.1 19.0------------
2024-02-25 02:48 pm S 17.1 19.0----30.10- 30.9-----
2024-02-25 02:42 pm S 15.9 18.1----30.10- 31.1-----
2024-02-25 02:36 pm S 15.9 18.1----30.11- 30.9-----
2024-02-25 02:30 pm S 14.0 15.9----30.11- 31.1-----
2024-02-25 02:24 pm S 15.0 17.1----30.11- 30.7-----
2024-02-25 02:18 pm S 13.0 15.0----30.11- 30.6-----
2024-02-25 02:12 pm S 13.0 15.0----30.11- 30.6-----
2024-02-25 02:06 pm S 13.0 14.0----30.11- 30.2-----
2024-02-25 02:00 pm S 12.0 14.0----30.11-0.05 30.0-----
2024-02-25 01:54 pm S 11.1 14.0----30.11- 30.0-----
2024-02-25 01:48 pm S 13.0 15.0----30.11- 30.0-----
2024-02-25 01:42 pm S 11.1 13.0----30.11- 30.4-----
2024-02-25 01:36 pm S 12.0 13.0----30.12- 30.2-----
2024-02-25 01:30 pm S 11.1 12.0----30.12-------
2024-02-25 01:24 pm S 9.9 12.0----30.12-------
2024-02-25 01:18 pm S 7.0 9.9----30.12- 30.2-----
2024-02-25 01:12 pm SE 2.9 5.1----30.12- 29.5-----
2024-02-25 01:06 pmESE 2.9 4.1----30.12- 28.9-----
2024-02-25 01:00 pmESE 1.9 4.1----30.13-0.04 28.9-----
2024-02-25 12:54 pm SE 4.1 4.1----30.13- 28.8-----
2024-02-25 12:48 pm E 2.9 5.1----30.13- 28.6-----
2024-02-25 12:42 pm E 4.1 5.1----30.13- 28.4-----
2024-02-25 12:36 pm E 4.1 5.1----30.13- 28.4-----
2024-02-25 12:30 pm E 5.1 6.0----30.14- 27.9-----
2024-02-25 12:24 pm E 4.1 5.1----30.14- 27.7-----
2024-02-25 12:18 pmENE 4.1 5.1----30.14- 27.7-----
2024-02-25 12:12 pm E 5.1 6.0----30.14- 27.5-----
2024-02-25 12:06 pm E 5.1 6.0----30.14- 27.3-----
2024-02-25 12:00 pm E 6.0 7.0----30.14-0.02 27.1-----
2024-02-25 11:54 am E 5.1 8.0----30.15- 27.0-----
2024-02-25 11:48 am E 6.0 8.0----30.15- 26.8-----
2024-02-25 11:42 am E 6.0 7.0----30.15- 26.6-----
2024-02-25 11:36 am E 5.1 6.0----30.15- 26.4-----
2024-02-25 11:30 am E 5.1 6.0----30.16- 26.2-----
2024-02-25 11:24 am E 4.1 5.1----30.16- 26.4-----
2024-02-25 11:18 amENE 5.1 6.0----30.16-------
2024-02-25 11:12 amENE 6.0 7.0----30.16-------
2024-02-25 11:06 am NE 5.1 6.0----30.16-------
2024-02-25 11:00 am NE 5.1 8.0----30.16-0.01------
2024-02-25 10:54 am NE 6.0 8.0----30.16-------
2024-02-25 10:48 am NE 5.1 7.0----30.16- 25.9-----
2024-02-25 10:42 amNNE 7.0 8.0----30.16- 25.9-----
2024-02-25 10:36 am NE 6.0 7.0----30.16- 24.8-----
2024-02-25 10:30 am NE 6.0 8.0------ 24.6-----
2024-02-25 10:24 am NE 6.0 8.0------ 24.6-----
2024-02-25 10:18 am NE 5.1 8.0----30.16-------
2024-02-25 10:12 am NE 6.0 8.0----30.16-------
2024-02-25 10:06 am NE 6.0 8.0----30.16-------
2024-02-25 10:00 am NE 6.0 8.9----30.16+0.00------
2024-02-25 09:54 am NE 6.0 8.9----30.16-------
2024-02-25 09:48 am-------30.16- 24.1-----
2024-02-25 09:42 am-------30.16- 24.1-----
2024-02-25 09:36 am-------30.17- 23.7-----
2024-02-25 09:30 amNNE 5.1 8.0------ 23.7-----
2024-02-25 09:24 amNNE 7.0 8.0------ 23.2-----
2024-02-25 09:18 am NW 5.1 7.0----30.17-------
2024-02-25 09:12 amNNW 7.0 8.9----30.17-------
2024-02-25 09:06 amNNW 5.1 8.0----30.17-------
2024-02-25 09:00 am N 5.1 9.9----30.17-------
2024-02-25 08:54 amNNW 6.0 8.9----30.17-------